TimePST,TemperatureF,Dew PointF,Humidity,Sea Level PressureIn,VisibilityMPH,Wind Direction,Wind SpeedMPH,Gust SpeedMPH,PrecipitationIn,Events,Conditions,WindDirDegrees,DateUTC
12:08 AM,28.4,28.4,100,29.81,0.8,SE,2.3,-,N/A,,Clear,140,2012-12-21 08:08:00
12:13 AM,26.6,26.6,100,29.81,0.5,ESE,1.2,-,N/A,Fog,Light Freezing Fog,110,2012-12-21 08:13:00
12:18 AM,26.6,26.6,100,29.81,0.5,ENE,2.3,-,N/A,Fog,Light Freezing Fog,70,2012-12-21 08:18:00
12:23 AM,26.6,26.6,100,29.81,0.8,NE,2.3,-,N/A,,Clear,50,2012-12-21 08:23:00
12:33 AM,26.6,26.6,100,29.81,0.5,Calm,Calm,-,N/A,Fog,Light Freezing Fog,0,2012-12-21 08:33:00
12:38 AM,26.6,26.6,100,29.81,0.5,Calm,Calm,-,N/A,Fog,Light Freezing Fog,0,2012-12-21 08:38:00
12:43 AM,26.6,26.6,100,29.81,0.8,East,1.2,-,N/A,,Clear,90,2012-12-21 08:43:00
12:48 AM,26.6,26.6,100,29.81,1.0,Calm,Calm,-,N/A,,Clear,0,2012-12-21 08:48:00
12:53 AM,24.8,24.8,100,29.81,1.2,Calm,Calm,-,N/A,,Clear,0,2012-12-21 08:53:00
12:58 AM,25.5,25.0,98,29.82,1.2,Calm,Calm,-,N/A,,Clear,0,2012-12-21 08:58:00
1:03 AM,26.6,26.6,100,29.80,0.8,Calm,Calm,-,N/A,,Clear,0,2012-12-21 09:03:00
1:08 AM,26.6,26.6,100,29.80,0.5,South,1.2,-,N/A,Fog,Light Freezing Fog,190,2012-12-21 09:08:00
1:13 AM,26.6,26.6,100,29.80,0.5,South,2.3,-,N/A,Fog,Light Freezing Fog,190,2012-12-21 09:13:00
1:18 AM,26.6,26.6,100,29.80,0.2,SSW,1.2,-,N/A,Fog,Light Freezing Fog,200,2012-12-21 09:18:00
1:28 AM,26.6,26.6,100,29.80,0.2,South,1.2,-,N/A,Fog,Light Freezing Fog,170,2012-12-21 09:28:00
1:33 AM,26.6,26.6,100,29.80,0.5,South,1.2,-,N/A,Fog,Light Freezing Fog,180,2012-12-21 09:33:00
1:38 AM,26.6,26.6,100,29.79,0.5,SE,2.3,-,N/A,Fog,Light Freezing Fog,130,2012-12-21 09:38:00
1:43 AM,26.6,24.8,93,29.79,0.5,SE,2.3,-,N/A,Fog,Light Freezing Fog,140,2012-12-21 09:43:00
1:58 AM,26.6,24.8,93,29.81,0.5,SSE,2.3,-,N/A,Fog,Light Freezing Fog,150,2012-12-21 09:58:00
2:03 AM,26.6,26.6,100,29.79,0.2,ESE,1.2,-,N/A,Fog,Light Freezing Fog,120,2012-12-21 10:03:00
2:08 AM,26.6,24.8,93,29.79,0.2,East,2.3,-,N/A,Fog,Light Freezing Fog,90,2012-12-21 10:08:00
2:13 AM,24.8,24.8,100,29.79,0.5,East,2.3,-,N/A,Fog,Light Freezing Fog,100,2012-12-21 10:13:00
2:18 AM,26.6,24.8,93,29.79,1.2,East,2.3,-,N/A,,Clear,90,2012-12-21 10:18:00
2:23 AM,26.6,26.6,100,29.79,4.0,East,2.3,-,N/A,,Clear,80,2012-12-21 10:23:00
2:58 AM,28.4,26.6,93,29.80,2.5,NE,1.2,-,N/A,,Clear,40,2012-12-21 10:58:00
3:03 AM,26.6,26.6,100,29.78,1.0,Calm,Calm,-,N/A,,Clear,0,2012-12-21 11:03:00
3:13 AM,26.6,26.6,100,29.77,1.2,NE,2.3,-,N/A,,Clear,40,2012-12-21 11:13:00
3:18 AM,26.6,24.8,93,29.77,1.8,East,1.2,-,N/A,,Clear,100,2012-12-21 11:18:00
3:23 AM,26.6,24.8,93,29.77,4.0,SE,2.3,-,N/A,,Clear,140,2012-12-21 11:23:00
3:38 AM,26.6,24.8,93,29.77,2.0,East,2.3,-,N/A,,Clear,80,2012-12-21 11:38:00
3:43 AM,26.6,26.6,100,29.77,3.0,ENE,1.2,-,N/A,,Clear,70,2012-12-21 11:43:00
3:48 AM,26.6,26.6,100,29.77,5.0,Calm,Calm,-,N/A,,Clear,0,2012-12-21 11:48:00
3:58 AM,27.0,26.4,98,29.79,8.0,Calm,Calm,-,N/A,,Clear,0,2012-12-21 11:58:00
4:58 AM,28.8,28.4,99,29.75,10.0,ENE,1.2,-,N/A,,Clear,70,2012-12-21 12:58:00
5:58 AM,29.5,29.3,99,29.76,10.0,Variable,2.3,-,N/A,,Scattered Clouds,0,2012-12-21 13:58:00
6:03 AM,30.2,30.2,100,29.75,10.0,SE,2.3,-,N/A,,Partly Cloudy,130,2012-12-21 14:03:00
6:18 AM,32.0,32.0,100,29.74,10.0,Calm,Calm,-,N/A,,Scattered Clouds,0,2012-12-21 14:18:00
6:21 AM,32.0,32.0,100,29.74,10.0,Variable,2.3,-,N/A,,Scattered Clouds,0,2012-12-21 14:21:00
6:41 AM,32.0,32.0,100,29.73,10.0,Calm,Calm,-,N/A,,Mostly Cloudy,0,2012-12-21 14:41:00
6:58 AM,31.3,31.1,99,29.75,10.0,Calm,Calm,-,0.00,,Overcast,0,2012-12-21 14:58:00
7:58 AM,31.3,31.1,99,29.74,10.0,East,1.2,-,N/A,,Overcast,100,2012-12-21 15:58:00
8:58 AM,32.0,31.8,99,29.75,10.0,Calm,Calm,-,N/A,,Overcast,0,2012-12-21 16:58:00
9:23 AM,32.0,32.0,100,29.74,10.0,South,3.5,-,N/A,Rain,Light Rain,180,2012-12-21 17:23:00
9:53 AM,32.0,32.0,100,29.74,10.0,West,1.2,-,N/A,,Overcast,260,2012-12-21 17:53:00
9:58 AM,32.5,32.2,99,29.76,10.0,West,2.3,-,0.00,,Overcast,260,2012-12-21 17:58:00
10:58 AM,36.5,36.3,99,29.77,10.0,WSW,4.6,-,N/A,,Overcast,240,2012-12-21 18:58:00
11:58 AM,39.2,36.9,91,29.77,10.0,NW,3.5,-,N/A,,Overcast,310,2012-12-21 19:58:00
12:58 PM,43.0,37.2,80,29.76,10.0,NNE,1.2,-,N/A,,Mostly Cloudy,30,2012-12-21 20:58:00
1:58 PM,46.0,39.2,77,29.75,10.0,NW,5.8,-,N/A,,Overcast,310,2012-12-21 21:58:00
2:58 PM,43.9,38.8,82,29.75,10.0,ENE,5.8,-,N/A,,Mostly Cloudy,60,2012-12-21 22:58:00
3:58 PM,40.1,37.0,89,29.75,10.0,East,1.2,-,N/A,,Clear,100,2012-12-21 23:58:00
4:58 PM,37.4,37.0,99,29.74,10.0,Calm,Calm,-,N/A,,Scattered Clouds,0,2012-12-22 00:58:00
5:58 PM,35.2,35.1,99,29.72,1.5,South,3.5,-,N/A,,Scattered Clouds,170,2012-12-22 01:58:00
6:08 PM,33.8,32.0,93,29.70,4.0,East,2.3,-,N/A,,Mostly Cloudy,100,2012-12-22 02:08:00
6:23 PM,33.8,33.8,100,29.70,3.0,Calm,Calm,-,N/A,,Scattered Clouds,0,2012-12-22 02:23:00
6:28 PM,35.6,35.6,100,29.70,4.0,SSE,2.3,-,N/A,,Mostly Cloudy,160,2012-12-22 02:28:00
6:38 PM,33.8,33.8,100,29.69,2.5,Calm,Calm,-,N/A,,Mostly Cloudy,0,2012-12-22 02:38:00
6:43 PM,35.6,35.6,100,29.69,3.0,East,2.3,-,N/A,,Mostly Cloudy,80,2012-12-22 02:43:00
6:58 PM,35.1,34.9,99,29.70,6.0,Calm,Calm,-,N/A,,Overcast,0,2012-12-22 02:58:00
7:58 PM,36.7,36.3,99,29.70,10.0,South,3.5,-,N/A,,Mostly Cloudy,180,2012-12-22 03:58:00
8:58 PM,36.3,36.0,99,29.71,9.0,East,3.5,-,N/A,,Overcast,80,2012-12-22 04:58:00
9:44 PM,35.6,35.6,100,29.68,10.0,East,2.3,-,N/A,Rain,Light Rain,100,2012-12-22 05:44:00
9:58 PM,36.1,36.0,99,29.70,7.0,SE,4.6,-,0.00,Rain,Light Rain,130,2012-12-22 05:58:00
10:37 PM,35.6,35.6,100,29.68,8.0,East,4.6,-,N/A,,Partly Cloudy,90,2012-12-22 06:37:00
10:58 PM,37.0,36.9,99,29.69,10.0,East,3.5,-,0.01,,Mostly Cloudy,80,2012-12-22 06:58:00
11:58 PM,36.7,36.5,99,29.68,10.0,Calm,Calm,-,N/A,,Overcast,0,2012-12-22 07:58:00